Showing default

KUIPER-00030, 63743

Orbit data source: Space-Track

KUIPER-00030, 63743 is a payload satellite owned by Kuiper Systems (US) in LEO that was launched on Mon, 28 Apr 2025 UTC via an ATLAS V 551 launch vehicle from the Air Force Eastern Test Range (AFETR). Payload-class satellites include a variety of spacecraft equipped with specific instruments for various scientific and technological missions. These include communications satellites like Starlink; space stations such as the ISS; scientific satellites like the Hubble; Earth observation satellites from companies like Planet Labs, Umbra, and HawkEye 360; GPS; miniature CubeSats for education and research; and military/defense satellites.

Loading next visibility...
Identifier
63743, 2025-088V
Orbit
LEO
Country
Flag of USUS
Related business
Manufacturer
Kuiper Systems
Mission
Operational Commercial Communications
Bus & Motor
KUIPER, Unknown motor
Mass
~490 kg wet, ~490 kg dry
Launch date (UTC)
2025-04-28 (8 months ago)
Launch vehicle
ATLAS V 551
Launch site
Air Force Eastern Test Range (AFETR)
Object type
Payload
Rocket body
Debris
Shape & HBR
Box + 2 Pan, 3.4 m
Radar Cross Section
2.326 m², Large (>1 m²)

Expand to show TLE details & history
Last TLE update: 22 hours ago

TLE from 22 hours ago
0 KUIPER-00030
1 63743U 25088V   25348.75912088  .00001564  00000-0  23427-3 0  9995
2 63743  51.8998 126.1011 0015852 145.1009 215.0996 14.79930732 35058
Epoch: 2025-12-14T18:13Z
TLE epoch observation values (Epoch: 2025-12-14T18:13:08.044Z)
Latitude
0.00002°
Longitude
129.15017°
Altitude
639.384 km
Speed
7.535 km/s
True Right ascension
08h 24m 24s
True Declination
0° 00' 00"
Sunlit
Object was in full shadow at epoch
Visualization orbit readout
Latitude
Unknown
Longitude
Unknown
Altitude
Unknown
Speed
Unknown
Apparent Right ascension
Unknown
Apparent Declination
Unknown
Sunlit
N/A
Visualization observer readout
Local Sidereal Time
15:07:28
Azimuth
Unknown
Elevation
Unknown
Doppler factor
Unknown
Orbital elements
Apogee altitude
641.103 km
Perigee altitude
618.885 km
Semi-major axis
7,008.131 km
Eccentricity
0.00159
Inclination
51.8998°
RAAN
126.1011°
Arg. of periapsis
145.1009°
True anomaly
214.99532°
Mean anomaly
215.0996°
Eccentric anomaly
215.04744°
Mean motion
3.69947 °/min
Orbital period
97.31 mins
BSTAR
0.00023427
Loading maneuver chart data...
Computing Atmospheric mass density...
Loading historical data...
Loading historical data...
Loading historical data...
Loading historical data...
Loading historical data...
Loading historical data...
Loading historical data...

Documentation

Showing up to 5 results
|